Weather reports worldwide

Advertisment
Bergamo/Orio al Serio, Italy (16076): temperature & dewpoint: 14.10.2018 16:00:00 - 20.10.2018 16:00:00 (CEST)Bergamo/Orio al Serio, Italy (16076): wind speed: 14.10.2018 16:00:00 - 20.10.2018 16:00:00 (CEST)Bergamo/Orio al Serio, Italy (16076): wind direction: 14.10.2018 16:00:00 - 20.10.2018 16:00:00 (CEST)Bergamo/Orio al Serio, Italy (16076): reduced air pressure: 14.10.2018 16:00:00 - 20.10.2018 16:00:00 (CEST)Bergamo/Orio al Serio, Italy (16076): visibility: 14.10.2018 16:00:00 - 20.10.2018 16:00:00 (CEST)Bergamo/Orio al Serio, Italy (16076): precipitation: 14.10.2018 16:00:00 - 20.10.2018 16:00:00 (CEST)
Date & Time tt [°C] td [°C] ff [km/h] ff [kn] dd ppp [hPa] vv [km] rr [mm]
20.10.2018 16:00:00 21,0 12,0 8 4 SSW - 5 -
20.10.2018 15:00:00 22,0 13,0 5 3 - - 5 -
20.10.2018 14:00:00 21,2 12,6 5 3 - 1024,3 5 -
20.10.2018 13:00:00 20,0 13,0 8 4 S - 5 -
20.10.2018 12:00:00 19,0 13,0 5 3 S - 5 -
20.10.2018 11:00:00 19,0 13,5 4 2 - 1024,5 5 0,0
20.10.2018 10:00:00 16,0 14,0 5 3 NNE - 5 -
20.10.2018 09:00:00 14,0 12,0 5 3 NNE - 4,5 -
20.10.2018 08:00:00 13,3 12,1 5 3 N 1022,8 5 -
20.10.2018 07:00:00 14,0 12,0 8 4 N - 5 -
20.10.2018 06:00:00 15,0 12,0 8 4 N - 6 -
20.10.2018 05:00:00 15,7 12,5 5 3 N 1021,9 6 0,0
20.10.2018 04:00:00 16,0 13,0 5 3 N - 6 -
20.10.2018 03:00:00 16,0 13,0 9 5 N - 5 -
20.10.2018 02:00:00 15,7 12,8 9 5 N 1022,0 6 -
20.10.2018 01:00:00 15,0 13,0 11 6 N - 5 -
20.10.2018 00:00:00 15,0 12,0 8 4 N - 5 -
19.10.2018 23:00:00 15,0 12,6 8 4 N 1021,2 6 0,0
19.10.2018 22:00:00 15,0 13,0 9 5 N - 6 -
19.10.2018 21:00:00 15,0 13,0 9 5 N - 7 -
19.10.2018 20:00:00 16,9 13,3 8 4 N 1019,9 7 -
19.10.2018 19:00:00 18,0 13,0 2 1 - - 7 -
19.10.2018 18:00:00 21,0 13,0 5 3 S - 7 -
19.10.2018 17:00:00 21,7 12,2 8 4 S 1018,5 7 0,0
19.10.2018 16:00:00 22,0 12,0 8 4 S - 7 -
19.10.2018 15:00:00 23,0 12,0 5 3 S - 7 -
19.10.2018 14:00:00 22,5 13,1 8 4 S 1019,0 7 -
19.10.2018 13:00:00 22,0 13,0 4 2 - - 8 -
19.10.2018 12:00:00 20,0 13,0 5 3 S - 8 -
19.10.2018 11:00:00 19,4 12,7 5 3 S 1019,4 10 0,0
19.10.2018 10:00:00 17,0 13,0 4 2 - - 10 -
19.10.2018 09:00:00 14,0 12,0 8 4 N - 10 -
19.10.2018 08:00:00 13,3 11,3 8 4 NNE 1018,2 7 -
19.10.2018 07:00:00 13,0 11,0 8 4 N - 8 -
19.10.2018 06:00:00 13,0 11,0 9 5 N - 8 -
19.10.2018 05:00:00 13,9 11,5 8 4 N 1018,4 8 0,0
19.10.2018 04:00:00 13,0 11,0 5 3 NNE - 8 -
19.10.2018 03:00:00 14,0 12,0 8 4 N - 8 -
19.10.2018 02:00:00 13,7 11,8 11 6 N 1018,5 8 -
19.10.2018 01:00:00 14,0 12,0 9 5 N - 8 -
19.10.2018 00:00:00 14,0 12,0 8 4 NNE - 8 -
18.10.2018 23:00:00 15,1 12,4 8 4 N 1017,3 8 0,0
18.10.2018 22:00:00 15,0 13,0 8 4 NNE - 8 -
18.10.2018 21:00:00 16,0 13,0 11 6 N - 8 -
18.10.2018 20:00:00 17,3 13,5 5 3 N 1016,6 8 -
18.10.2018 19:00:00 19,0 14,0 4 2 - - 7 -
18.10.2018 18:00:00 21,0 13,0 9 5 S - 8 -
18.10.2018 17:00:00 21,7 12,5 9 5 S 1015,9 8 0,0
18.10.2018 16:00:00 23,0 12,0 9 5 S - 10 -
18.10.2018 15:00:00 23,0 12,0 8 4 S - 10 -
18.10.2018 14:00:00 22,0 11,0 8 4 SSW - 10 -
18.10.2018 13:00:00 21,0 12,0 4 2 - - 10 -
18.10.2018 12:00:00 19,0 12,0 4 2 - - 10 -
18.10.2018 11:00:00 18,3 11,9 2 1 - 1018,1 8 0,0
18.10.2018 10:00:00 16,0 12,0 2 1 - - 8 -
18.10.2018 09:00:00 13,0 11,0 8 4 N - 8 -
18.10.2018 08:00:00 13,0 11,0 5 3 N - 7 -
18.10.2018 07:00:00 13,0 11,0 5 3 N - 9 -
18.10.2018 06:00:00 12,0 11,0 8 4 N - 8 -
18.10.2018 05:00:00 12,6 11,0 8 4 NNE 1017,6 7 0,0
18.10.2018 04:00:00 13,0 11,0 8 4 N - 7 -
18.10.2018 03:00:00 14,0 12,0 4 2 - - 7 -
18.10.2018 02:00:00 13,7 11,6 8 4 NNE 1018,7 7 -
18.10.2018 01:00:00 14,0 12,0 5 3 N - 7 -
18.10.2018 00:00:00 15,0 13,0 5 3 N - 7 -
17.10.2018 23:00:00 14,4 12,0 5 3 N 1019,5 8 0,0
17.10.2018 22:00:00 15,0 12,0 8 4 N - 9 -
17.10.2018 21:00:00 16,0 13,0 8 4 N - 8 -
17.10.2018 20:00:00 16,3 12,3 4 2 N 1018,9 8 -
17.10.2018 19:00:00 18,0 12,0 5 3 SW - 5 -
17.10.2018 18:00:00 19,0 11,0 5 3 SSW - 8 -
17.10.2018 17:00:00 19,8 11,1 2 1 - 1018,3 7 0,0
17.10.2018 16:00:00 20,0 11,0 4 2 - - 7 -
17.10.2018 15:00:00 19,0 12,0 2 1 - - 6 -
17.10.2018 14:00:00 18,6 11,0 4 2 - 1019,5 7 -
17.10.2018 13:00:00 18,0 12,0 5 3 S - 6 -
17.10.2018 12:00:00 18,0 12,0 8 4 S - 8 -
17.10.2018 11:00:00 17,8 10,9 4 2 - 1020,3 9 0,0
17.10.2018 10:00:00 16,0 11,0 8 4 N - 9 -
17.10.2018 09:00:00 15,0 11,0 5 3 N - 10 -
17.10.2018 08:00:00 14,0 10,7 5 3 N 1020,4 10 -
17.10.2018 07:00:00 15,0 10,0 5 3 N - 10 -
17.10.2018 06:00:00 14,0 11,0 5 3 N - 10 -
17.10.2018 05:00:00 14,3 10,6 5 3 NNE 1019,9 10 0,0
17.10.2018 04:00:00 15,0 11,0 2 1 - - 10 -
17.10.2018 03:00:00 14,0 11,0 5 3 NNE - 10 -
17.10.2018 02:00:00 13,7 11,2 5 3 NNE 1021,2 10 -
17.10.2018 01:00:00 13,0 10,0 5 3 N - 10 -
17.10.2018 00:00:00 13,0 11,0 5 3 NNW - 10 -
16.10.2018 23:00:00 14,1 10,7 8 4 NNE 1021,8 10 0,0
16.10.2018 22:00:00 15,0 11,0 4 2 N - 10 -
16.10.2018 21:00:00 16,0 11,0 5 3 N - 10 -
16.10.2018 20:00:00 16,9 11,2 4 2 E 1021,7 10 -
16.10.2018 19:00:00 18,0 12,0 4 2 E - 10 -
16.10.2018 18:00:00 20,0 10,0 9 5 S - 10 -
16.10.2018 17:00:00 20,5 10,8 13 7 SSE 1020,8 10 0,0
16.10.2018 16:00:00 21,0 10,0 11 6 SE - 10 -
16.10.2018 15:00:00 21,0 10,0 5 3 - - 10 -
16.10.2018 14:00:00 20,6 10,6 4 2 - 1021,2 10 -
16.10.2018 13:00:00 20,0 10,0 2 1 - - 10 -
16.10.2018 12:00:00 19,0 11,0 4 2 - - 10 -
16.10.2018 11:00:00 17,0 11,2 4 2 - 1021,7 10 0,0
16.10.2018 10:00:00 15,0 10,0 9 5 N - 10 -
16.10.2018 09:00:00 14,0 10,0 8 4 N - 10 -
16.10.2018 08:00:00 12,4 9,7 8 4 N 1020,8 10 -
16.10.2018 07:00:00 12,0 10,0 8 4 N - 10 -
16.10.2018 06:00:00 12,0 10,0 5 3 NNE - 10 -
16.10.2018 05:00:00 12,5 10,1 5 3 N 1020,6 10 0,0
16.10.2018 04:00:00 13,0 10,0 8 4 N - 10 -
16.10.2018 03:00:00 13,0 10,0 8 4 N - 10 -
16.10.2018 02:00:00 12,8 10,6 9 5 NNE 1021,2 10 -
16.10.2018 01:00:00 13,0 11,0 9 5 N - 10 -
16.10.2018 00:00:00 14,0 11,0 8 4 N - 10 -
15.10.2018 23:00:00 13,9 11,2 8 4 NNE 1021,1 10 0,0
15.10.2018 22:00:00 - - - - - - - -
15.10.2018 21:00:00 17,0 12,0 4 2 - - 10 -
15.10.2018 20:00:00 17,4 11,7 4 2 N 1020,6 10 -
15.10.2018 19:00:00 18,0 11,0 8 4 SE - 10 -
15.10.2018 18:00:00 20,0 11,0 9 5 S - 10 -
15.10.2018 17:00:00 20,7 10,5 15 8 SE 1018,7 10 0,0
15.10.2018 16:00:00 21,0 11,0 4 2 - - 10 -
15.10.2018 15:00:00 21,0 11,0 11 6 SE - 10 -
15.10.2018 14:00:00 20,1 11,4 9 5 SSW 1019,6 8 -
15.10.2018 13:00:00 19,0 11,0 5 3 S - 9 -
15.10.2018 12:00:00 19,0 11,0 9 5 S - 9 -
15.10.2018 11:00:00 18,4 11,5 2 1 - 1019,8 9 0,0
15.10.2018 10:00:00 15,0 13,0 2 1 - - 9 -
15.10.2018 09:00:00 14,0 11,0 4 2 - - 7 -
15.10.2018 08:00:00 11,9 10,1 9 5 N 1018,9 8 -
15.10.2018 07:00:00 12,0 10,0 8 4 N - 10 -
15.10.2018 06:00:00 12,0 10,0 5 3 N - 10 -
15.10.2018 05:00:00 12,4 10,2 8 4 NNE 1018,9 10 0,0
15.10.2018 04:00:00 14,0 10,0 5 3 N - 10 -
15.10.2018 03:00:00 14,0 11,0 5 3 N - 10 -
15.10.2018 02:00:00 13,7 11,0 9 5 NNE 1019,4 10 -
15.10.2018 01:00:00 14,0 11,0 8 4 NNE - 10 -
15.10.2018 00:00:00 14,0 11,0 9 5 NNE - 10 -
14.10.2018 23:00:00 15,7 11,5 8 4 N 1019,8 10 0,0
14.10.2018 22:00:00 15,0 12,0 9 5 N - 10 -
14.10.2018 21:00:00 16,0 12,0 9 5 N - 10 -
14.10.2018 20:00:00 16,2 11,7 8 4 NNE 1019,3 15 -
14.10.2018 19:00:00 18,0 11,0 4 2 - - 10 -
14.10.2018 18:00:00 21,0 10,0 8 4 SSE - 10 -
14.10.2018 17:00:00 21,5 9,8 9 5 SE 1019,0 10 0,0
14.10.2018 16:00:00 22,0 10,0 11 6 SSE - 10 -

tt = temperature
td = dewpoint
ff = wind speed
dd = wind direction
ppp = reduced air pressure
vv = visibility
rr = precipitation

Next stations